RH
33 32 35 34 33 32 29 25 28 33 40 51 50 52 57 57 57 57 52 45 47 38 29 30 32 27 22 24 22 20 23 26 24 21 18 18 19 19 19 18 17 16 15 14 16 23 33 41 45
31 32 32 33 36 35 30 28 26 31 37 47 61 66 64 64 58 57 52 48 48 43 29 27 29 24 22 23 20 18 19 21 20 19 19 19 18 18 18 18 18 17 16 15 18 25 28 31 33
23 27 30 31 33 33 30 27 30 29 35 45 60 65 63 60 56 55 50 49 50 48 31 25 25 22 21 21 19 17 17 17 18 18 19 19 19 18 17 16 16 17 18 19 21 25 27 29 33
15 27 29 31 28 24 23 30 33 30 32 42 55 63 60 55 48 51 49 47 50 51 38 26 23 21 19 19 18 15 15 15 16 16 17 19 19 18 17 16 16 17 18 20 20 23 27 28 31
8 15 23 27 26 20 20 28 37 31 31 39 48 62 65 54 52 50 48 47 48 50 41 29 23 20 19 18 17 14 14 14 14 15 16 17 18 18 18 15 14 15 19 18 20 25 31 33 35
7 11 20 21 19 17 17 24 29 34 32 36 45 56 64 55 50 52 51 52 55 49 40 32 24 21 19 19 16 14 14 15 15 15 15 16 15 16 16 16 15 15 17 21 23 32 36 36 34
8 12 16 16 15 13 12 14 24 34 33 43 46 60 65 55 53 55 57 57 59 47 39 31 25 22 21 19 16 16 15 15 16 15 16 17 17 16 16 16 16 18 22 25 32 37 37 38 35
6 10 13 14 12 12 9 10 14 28 38 47 54 60 65 59 52 55 60 60 60 51 39 32 26 23 21 19 17 16 16 16 16 17 18 19 19 18 18 18 19 22 26 35 38 41 37 38 40
6 8 11 10 12 10 10 10 12 21 34 40 50 55 60 65 61 57 59 67 62 51 41 32 28 23 22 19 18 18 18 18 18 20 21 21 20 21 22 23 25 29 36 40 42 42 40 41 37
7 10 7 6 7 6 7 7 8 14 25 42 50 52 57 64 68 63 58 59 63 53 42 34 28 25 23 21 19 19 19 19 20 21 21 21 20 21 24 29 33 40 44 44 45 45 43 39 32
8 8 5 4 5 5 5 5 6 9 17 33 45 54 52 56 68 78 67 62 64 59 48 37 29 27 24 22 20 20 20 21 21 22 22 20 20 25 31 34 41 46 47 52 58 51 52 41 29
7 6 6 5 5 5 5 4 4 6 10 19 33 51 54 56 61 64 69 59 60 57 51 41 31 27 26 24 21 20 20 20 21 23 23 22 27 31 35 44 53 56 58 63 69 59 49 37 29
8 7 6 6 6 5 5 5 5 4 7 14 20 30 55 56 55 62 71 75 72 66 58 45 36 29 29 26 24 23 22 22 23 23 26 29 35 38 47 58 65 67 70 72 70 55 39 38 30
8 8 7 6 7 6 6 5 5 4 4 9 14 20 37 51 54 63 64 71 74 77 69 55 40 33 31 28 26 25 24 24 24 30 36 41 48 48 57 65 67 70 73 67 57 45 42 36 30
9 9 8 7 7 8 7 5 4 4 4 6 11 14 34 47 61 63 61 66 70 73 82 67 46 36 34 31 28 26 25 25 30 41 43 46 48 57 64 64 65 66 67 58 55 46 41 34 32
11 10 11 8 6 7 7 7 4 4 4 5 10 14 21 34 65 61 63 70 76 76 79 78 57 41 38 36 32 30 29 32 36 48 55 51 57 62 65 66 64 61 57 58 55 46 40 34 35
17 16 12 10 9 9 8 8 6 5 5 5 8 13 20 25 41 60 72 71 75 78 80 84 71 47 40 40 36 33 36 39 43 50 56 60 60 65 66 66 59 59 58 57 54 44 37 33 35
24 18 15 12 10 8 9 8 7 6 6 6 6 11 18 24 28 44 71 74 69 77 84 89 86 57 47 44 39 36 38 46 45 45 52 56 58 64 66 61 55 59 60 56 51 43 34 33 29
26 24 23 19 16 15 13 12 9 7 6 6 6 7 12 22 24 32 48 74 74 78 78 91 93 75 55 47 43 43 45 52 50 51 56 54 55 62 60 56 54 57 61 55 47 43 33 33 29
38 34 29 29 26 23 17 13 10 8 7 6 6 6 11 16 31 34 44 67 81 79 76 81 93 88 62 50 52 51 53 57 57 56 59 58 56 61 57 54 54 58 54 48 45 39 30 28 27
41 40 37 37 31 28 23 19 13 9 8 7 6 6 9 11 24 30 40 57 76 79 69 68 78 96 77 64 58 57 59 60 60 59 56 58 58 61 57 54 53 55 48 42 41 36 28 28 29
45 37 39 39 40 39 22 23 13 9 8 7 6 6 8 11 16 28 28 48 62 67 60 61 65 94 90 69 62 61 60 62 65 57 56 61 59 60 59 53 53 50 42 40 39 38 34 24 26
48 50 45 48 44 47 37 33 17 11 10 7 7 8 8 10 12 25 30 42 50 58 58 51 57 96 97 77 70 67 64 66 63 58 57 60 58 64 61 52 54 43 37 40 44 43 36 28 26
64 74 65 62 61 74 39 40 21 14 11 9 7 8 9 11 14 19 27 31 43 50 47 46 56 75 97 94 81 76 68 66 63 61 55 59 65 66 60 52 49 38 40 46 44 40 34 30 26
69 86 92 87 77 75 38 44 22 15 12 11 8 9 11 12 15 19 27 33 36 46 46 44 57 80 95 93 86 81 67 63 64 59 54 60 66 63 53 49 44 38 47 49 47 42 38 32 25
68 86 84 75 65 49 32 51 20 22 25 27 19 17 18 17 16 21 23 28 32 38 41 47 60 80 98 95 94 85 74 67 65 58 56 63 63 60 45 48 40 38 47 46 44 43 39 33 26
77 91 62 64 90 75 47 44 31 45 42 36 30 24 23 23 17 21 21 28 30 36 42 52 60 74 86 95 96 85 76 73 66 61 63 69 65 50 45 47 37 39 44 42 39 37 35 32 27
72 74 89 93 90 89 60 46 68 62 57 52 44 34 31 28 23 22 21 27 27 30 41 59 64 77 95 97 98 90 80 71 70 65 69 69 64 41 45 43 36 39 40 39 38 34 31 30 26
86 90 82 71 70 80 64 81 82 70 69 67 53 47 43 37 29 24 23 24 27 32 44 57 68 76 85 95 98 94 81 72 75 72 70 66 57 41 43 41 35 37 39 37 35 31 27 28 27
92 87 82 70 85 81 68 85 77 73 77 67 63 54 48 35 29 24 25 27 36 40 50 54 71 92 97 98 96 95 82 82 79 72 70 70 48 42 45 38 32 34 37 34 33 29 26 26 26